Regional Weather Roundup
Issued by NWS

Home | Current Version | Previous Version | Graphics & Text | Print | Product List | Glossary On
Versions: 1 2 3 4 5 6 7 8 9 10 11 12 13 14 15 16 17 18 19 20 21 22 23 24 25 26 27 28 29 30 31 32 33 34 35 36 37 38 39 40 41 42 43 44 45 46 47 48 49 50
000
ASUS43 KBIS 301320
RWRND

NORTH DAKOTA REGIONAL WEATHER ROUNDUP
NATIONAL WEATHER SERVICE BISMARCK ND
700 AM CST FRI JAN 30 2015

NOTE: "FAIR" INDICATES FEW OR NO CLOUDS BELOW 12,000 FEET WITH NO
SIGNIFICANT WEATHER AND/OR OBSTRUCTIONS TO VISIBILITY.


NDZ001>003-009>011-017-301400-
NORTHWEST NORTH DAKOTA

CITY           SKY/WX    TMP DP  RH WIND       PRES   REMARKS
WILLISTON      CLEAR     16  12  84 CALM      30.15S
MINOT          CLEAR     23  17  78 S13       30.11F WCI  11
MINOT AFB      CLEAR     20  20  98 SW6       30.12F WCI  13
$$

NDZ018>021-031>035-040>046-301400-
SOUTHWEST NORTH DAKOTA

CITY           SKY/WX    TMP DP  RH WIND       PRES   REMARKS
BISMARCK       CLEAR     18  16  92 S7        30.23F WCI   9
DICKINSON      CLEAR     28  18  66 SW13      30.11F WCI  17
GARRISON         N/A     18  15  88 S7        30.16F WCI   9
HETTINGER ARPT CLEAR     23  16  74 SW5       30.18F WCI  17
$$

NDZ004>008-012>016-024-026-027-054-301400-
NORTHEAST NORTH DAKOTA

CITY           SKY/WX    TMP DP  RH WIND       PRES   REMARKS
GRAND FORKS    CLOUDY    10   4  76 S12G21    30.38F WCI  -5
GRND FRKS AFB  CLOUDY    10   3  75 S13       30.37F WCI  -6
DEVILS LAKE    CLOUDY    18  16  93 S15       30.23F WCI   3
$$

NDZ022-023-025-028>030-036>039-047>053-301400-
SOUTHEAST NORTH DAKOTA

CITY           SKY/WX    TMP DP  RH WIND       PRES   REMARKS
FARGO          CLOUDY    12   4  70 S12       30.43F WCI  -2
JAMESTOWN      CLOUDY    20  16  84 S14       30.29F WCI   7
$$



USA.gov is the U.S. government's official web portal to all federal, state and local government web resources and services.